TimeEDT,TemperatureF,Dew PointF,Humidity,Sea Level PressureIn,VisibilityMPH,Wind Direction,Wind SpeedMPH,Gust SpeedMPH,PrecipitationIn,Events,Conditions,WindDirDegrees,DateUTC
12:10 AM,75.2,69.8,83,30.10,10.0,East,9.2,-,0.00,Rain,Light Rain,90,2013-07-15 04:10:00
12:53 AM,75.9,70.0,82,30.09,10.0,East,4.6,-,0.03,Rain,Light Rain,90,2013-07-15 04:53:00
1:53 AM,75.9,70.0,82,30.08,10.0,NE,3.5,-,0.05,Rain,Light Rain,40,2013-07-15 05:53:00
2:53 AM,77.0,71.1,82,30.06,10.0,Calm,Calm,-,0.00,,Overcast,0,2013-07-15 06:53:00
3:53 AM,75.9,71.1,85,30.05,10.0,Calm,Calm,-,N/A,,Mostly Cloudy,0,2013-07-15 07:53:00
4:53 AM,75.0,70.0,84,30.04,10.0,NW,3.5,-,N/A,,Scattered Clouds,320,2013-07-15 08:53:00
5:53 AM,75.9,70.0,82,30.04,10.0,SW,5.8,-,N/A,,Mostly Cloudy,230,2013-07-15 09:53:00
6:53 AM,75.9,71.1,85,30.05,10.0,NW,4.6,-,N/A,,Mostly Cloudy,320,2013-07-15 10:53:00
7:53 AM,79.0,72.0,79,30.07,10.0,NNW,4.6,-,N/A,,Mostly Cloudy,330,2013-07-15 11:53:00
8:53 AM,82.9,73.9,74,30.08,10.0,Calm,Calm,-,N/A,,Mostly Cloudy,0,2013-07-15 12:53:00
9:53 AM,86.0,69.1,57,30.07,10.0,East,8.1,-,N/A,,Mostly Cloudy,80,2013-07-15 13:53:00
10:53 AM,87.1,71.1,59,30.08,10.0,East,6.9,-,N/A,,Mostly Cloudy,80,2013-07-15 14:53:00
11:53 AM,86.0,70.0,59,30.08,10.0,East,8.1,-,N/A,,Mostly Cloudy,80,2013-07-15 15:53:00
12:53 PM,84.9,70.0,61,30.08,10.0,NE,10.4,-,N/A,,Mostly Cloudy,50,2013-07-15 16:53:00
1:53 PM,86.0,70.0,59,30.06,10.0,ENE,5.8,-,N/A,,Mostly Cloudy,70,2013-07-15 17:53:00
2:53 PM,84.9,69.1,59,30.04,10.0,NE,9.2,-,N/A,,Mostly Cloudy,40,2013-07-15 18:53:00
3:53 PM,84.9,70.0,61,30.04,10.0,East,10.4,-,N/A,,Mostly Cloudy,80,2013-07-15 19:53:00
4:53 PM,81.0,68.0,65,30.04,10.0,East,10.4,-,0.00,Rain,Light Rain,80,2013-07-15 20:53:00
5:53 PM,82.9,68.0,60,30.02,10.0,East,9.2,-,0.00,,Mostly Cloudy,80,2013-07-15 21:53:00
6:53 PM,82.0,68.0,62,30.04,10.0,ENE,6.9,-,N/A,,Mostly Cloudy,70,2013-07-15 22:53:00
7:53 PM,79.0,71.1,77,30.05,7.0,East,12.7,23.0,0.01,Rain,Light Rain,90,2013-07-15 23:53:00
8:53 PM,79.0,72.0,79,30.06,10.0,ENE,3.5,-,0.00,,Mostly Cloudy,60,2013-07-16 00:53:00
9:53 PM,81.0,70.0,69,30.08,10.0,East,12.7,-,N/A,,Scattered Clouds,100,2013-07-16 01:53:00
10:53 PM,81.0,70.0,69,30.09,10.0,East,15.0,-,N/A,,Scattered Clouds,100,2013-07-16 02:53:00
11:53 PM,82.0,70.0,67,30.10,10.0,East,16.1,-,N/A,,Mostly Cloudy,100,2013-07-16 03:53:00